Fort Hood, TX

4:50 PM CST on November 22, 2019 (GMT -0600)
Killeen-Fort Hood Regional

Weather History for KGRK - October, 2019

Change the Weather History Date:

Wednesday, October 23, 2019

  Actual Average Record
Temperature  
Mean Temperature 64 °F -  
Max Temperature 82 °F 75 °F 89 °F (2003)
Min Temperature 47 °F 56 °F 41 °F (2006)
Growing Degree Days 14 (Base 50)    
Moisture  
Dew Point 48 °F    
Average Humidity 52    
Maximum Humidity 77    
Minimum Humidity 33    
Precipitation  
Precipitation 0.00 in - - ()
Sea Level Pressure  
Sea Level Pressure 30.00 in    
Wind  
Wind Speed 12 mph (SSE)    
Max Wind Speed 24 mph    
Max Gust Speed 32 mph    
Visibility 10 miles    
Events      
Averages and records for this station are not official NWS values.
T = Trace of Precipitation, MM = Missing Value Source: NWS Daily Summary

Daily Weather History Graph

Daily Weather History Graph

Search for Another Location

Airport or City:

Astronomy

Oct. 23, 2019 Rise Set
Actual Time 7:39 AM CDT 6:51 PM CDT
Civil Twilight 7:14 AM CDT 7:15 PM CDT
Nautical Twilight 6:46 AM CDT 7:44 PM CDT
Astronomical Twilight 6:18 AM CDT 8:12 PM CDT
Moon 2:28 AM CDT (10/23) 4:16 PM CDT (10/23)
Length of Visible Light 12h 00m
Length of Day
11h 11m
Waning Crescent, 26% of the Moon is Illuminated
Oct 23
Waning Crescent
Oct 27
New
Nov 4
First Quarter
Nov 12
Full
Nov 19
Last Quarter

Hourly Weather History & Observations

Time (CDT) Temp. Dew Point Humidity Pressure Visibility Wind Dir Wind Speed Gust Speed Precip Events Conditions
12:58 AM 55.4 °F 39.2 °F 54% 30.09 in 10.0 mi SSE 8.1 mph - 0.00 in   Clear
1:58 AM 52.3 °F 39.6 °F 62% 30.08 in 10.0 mi SSE 9.2 mph - 0.00 in   Clear
2:58 AM 55.4 °F 38.1 °F 52% 30.08 in 10.0 mi SSE 9.2 mph - N/A   Clear
3:58 AM 56.8 °F 38.7 °F 51% 30.06 in 10.0 mi South 9.2 mph - N/A   Clear
4:58 AM 55.4 °F 39.0 °F 54% 30.06 in 10.0 mi South 10.4 mph - N/A   Clear
5:58 AM 50.2 °F 40.5 °F 69% 30.06 in 10.0 mi SE 6.9 mph - N/A   Clear
6:58 AM 47.8 °F 40.6 °F 76% 30.07 in 10.0 mi SSE 5.8 mph - N/A   Clear
7:58 AM 48.6 °F 41.7 °F 77% 30.07 in 10.0 mi SSE 5.8 mph - N/A   Clear
8:58 AM 59.0 °F 43.7 °F 57% 30.07 in 10.0 mi SSE 8.1 mph - N/A   Clear
9:58 AM 64.9 °F 47.1 °F 52% 30.08 in 10.0 mi SSE 11.5 mph - N/A   Clear
11:58 AM 75.7 °F 54.0 °F 47% 30.04 in 10.0 mi South 20.7 mph 28.8 mph N/A   Clear
12:58 PM 77.5 °F 52.9 °F 42% 30.01 in 10.0 mi South 18.4 mph 25.3 mph N/A   Clear
1:58 PM 79.9 °F 51.4 °F 37% 29.97 in 10.0 mi South 18.4 mph 25.3 mph N/A   Clear
2:58 PM 81.5 °F 51.4 °F 35% 29.93 in 10.0 mi South 17.3 mph 24.2 mph N/A   Clear
3:51 PM 82.4 °F 51.8 °F 35% 29.91 in 10.0 mi SSE 19.6 mph 27.6 mph N/A   Clear
3:58 PM 82.4 °F 50.7 °F 33% 29.91 in 10.0 mi SSE 24.2 mph 32.2 mph N/A   Clear
4:58 PM 82.0 °F 50.9 °F 34% 29.90 in 10.0 mi SSE 13.8 mph 21.9 mph N/A   Clear
5:58 PM 80.8 °F 52.0 °F 37% 29.89 in 10.0 mi SSE 13.8 mph 23.0 mph N/A   Clear
6:58 PM 77.0 °F 54.1 °F 45% 29.90 in 10.0 mi SE 12.7 mph - N/A   Clear
7:58 PM 75.6 °F 54.5 °F 48% 29.92 in 10.0 mi SE 16.1 mph - N/A   Clear
8:58 PM 73.2 °F 56.1 °F 55% 29.93 in 10.0 mi SSE 20.7 mph - N/A   Clear
9:58 PM 71.4 °F 56.7 °F 60% 29.94 in 10.0 mi SE 18.4 mph - N/A   Clear
10:58 PM 69.6 °F 57.4 °F 65% 29.96 in 10.0 mi SE 17.3 mph - N/A   Clear
11:58 PM 67.3 °F 57.6 °F 71% 29.97 in 10.0 mi SE 12.7 mph - N/A   Clear